Time,TemperatureF,DewpointF,PressureIn,WindDirection,WindDirectionDegrees,WindSpeedMPH,WindSpeedGustMPH,Humidity,HourlyPrecipIn,Conditions,Clouds,dailyrainin,SoftwareType,DateUTC
2013-02-13 10:51:00,52.2,44.5,29.93,NNW,337,6.8,-999.0,75,-99.99,,,0.00,Acu-Link.com,2013-02-13 16:51:00,
2013-02-13 11:19:00,54.1,46.0,29.91,NNW,337,10.4,-999.0,74,-99.99,,,0.00,Acu-Link.com,2013-02-13 17:19:00,
2013-02-13 12:16:00,55.0,46.1,29.91,NE,45,10.9,-999.0,72,-99.99,,,0.00,Acu-Link.com,2013-02-13 18:16:00,
2013-02-13 12:31:00,56.1,46.8,29.91,NE,45,6.8,-999.0,71,-99.99,,,0.00,Acu-Link.com,2013-02-13 18:31:00,
2013-02-13 12:46:00,57.2,47.9,29.90,NNE,22,4.7,-999.0,71,-99.99,,,0.00,Acu-Link.com,2013-02-13 18:46:00,
2013-02-13 13:01:00,57.2,46.3,29.91,NW,315,6.8,-999.0,67,-99.99,,,0.00,Acu-Link.com,2013-02-13 19:01:00,
2013-02-13 13:16:00,57.0,46.9,29.89,WNW,292,7.3,-999.0,69,-99.99,,,0.00,Acu-Link.com,2013-02-13 19:16:00,
2013-02-13 13:32:00,57.4,46.5,29.89,NNE,22,8.3,-999.0,67,-99.99,,,0.00,Acu-Link.com,2013-02-13 19:32:00,
2013-02-13 13:47:00,57.7,46.4,29.89,West,270,9.9,-999.0,66,-99.99,,,0.00,Acu-Link.com,2013-02-13 19:47:00,
2013-02-13 14:02:00,58.8,46.6,29.88,NNW,337,5.3,-999.0,64,-99.99,,,0.00,Acu-Link.com,2013-02-13 20:02:00,
2013-02-13 14:17:00,57.9,46.2,29.88,NNW,337,5.8,-999.0,65,-99.99,,,0.00,Acu-Link.com,2013-02-13 20:17:00,
2013-02-13 14:32:00,58.6,46.9,29.88,North,0,5.3,-999.0,65,-99.99,,,0.00,Acu-Link.com,2013-02-13 20:32:00,
2013-02-13 14:47:00,59.5,46.0,29.88,NW,315,6.3,-999.0,61,-99.99,,,0.00,Acu-Link.com,2013-02-13 20:47:00,
2013-02-13 15:03:00,59.2,46.2,29.88,NNE,22,6.3,-999.0,62,-99.99,,,0.00,Acu-Link.com,2013-02-13 21:03:00,
2013-02-13 15:18:00,59.4,46.4,29.87,WNW,292,4.7,-999.0,62,-99.99,,,0.00,Acu-Link.com,2013-02-13 21:18:00,
2013-02-13 15:33:00,59.5,46.5,29.87,North,0,7.8,-999.0,62,-99.99,,,0.00,Acu-Link.com,2013-02-13 21:33:00,
2013-02-13 15:48:00,59.4,45.9,29.86,NNE,22,5.3,-999.0,61,-99.99,,,0.00,Acu-Link.com,2013-02-13 21:48:00,
2013-02-13 16:03:00,59.2,44.9,29.86,NNE,22,5.8,-999.0,59,-99.99,,,0.00,Acu-Link.com,2013-02-13 22:03:00,
2013-02-13 16:18:00,59.0,45.6,29.87,NW,315,5.8,-999.0,61,-99.99,,,0.00,Acu-Link.com,2013-02-13 22:18:00,
2013-02-13 16:34:00,59.0,45.6,29.87,NNW,337,6.8,-999.0,61,-99.99,,,0.00,Acu-Link.com,2013-02-13 22:34:00,
2013-02-13 16:49:00,58.8,44.9,29.87,NW,315,7.3,-999.0,60,-99.99,,,0.00,Acu-Link.com,2013-02-13 22:49:00,
2013-02-13 17:04:00,58.3,45.8,29.87,NNE,22,3.7,-999.0,63,-99.99,,,0.00,Acu-Link.com,2013-02-13 23:04:00,
2013-02-13 17:19:00,57.7,45.2,29.88,NNE,22,6.3,-999.0,63,-99.99,,,0.00,Acu-Link.com,2013-02-13 23:19:00,
2013-02-13 17:34:00,57.7,45.2,29.88,NNW,337,5.8,-999.0,63,-99.99,,,0.00,Acu-Link.com,2013-02-13 23:34:00,
2013-02-13 17:49:00,56.7,45.5,29.89,ENE,67,2.7,-999.0,66,-99.99,,,0.00,Acu-Link.com,2013-02-13 23:49:00,
2013-02-13 18:04:00,55.0,45.4,29.89,NE,45,3.2,-999.0,70,-99.99,,,0.00,Acu-Link.com,2013-02-14 00:04:00,
2013-02-13 18:19:00,53.6,45.2,29.89,ENE,67,3.2,-999.0,73,-99.99,,,0.00,Acu-Link.com,2013-02-14 00:19:00,
2013-02-13 18:34:00,52.2,45.2,29.90,ENE,67,1.7,-999.0,77,-99.99,,,0.00,Acu-Link.com,2013-02-14 00:34:00,
2013-02-13 18:50:00,51.1,45.1,29.91,ENE,67,0.0,-999.0,80,-99.99,,,0.00,Acu-Link.com,2013-02-14 00:50:00,
2013-02-13 19:05:00,49.6,45.3,29.91,ENE,67,0.0,-999.0,85,-99.99,,,0.00,Acu-Link.com,2013-02-14 01:05:00,
2013-02-13 19:20:00,48.4,45.3,29.91,ESE,112,0.0,-999.0,89,-99.99,,,0.00,Acu-Link.com,2013-02-14 01:20:00,
2013-02-13 19:35:00,47.1,45.7,29.92,NNE,22,0.0,-999.0,95,-99.99,,,0.00,Acu-Link.com,2013-02-14 01:35:00,
2013-02-13 19:50:00,46.2,45.7,29.92,East,90,0.0,-999.0,98,-99.99,,,0.00,Acu-Link.com,2013-02-14 01:50:00,
2013-02-13 20:05:00,45.5,45.0,29.92,NNE,22,0.0,-999.0,98,-99.99,,,0.00,Acu-Link.com,2013-02-14 02:05:00,
2013-02-13 20:20:00,45.0,44.5,29.93,NE,45,0.0,-999.0,98,-99.99,,,0.00,Acu-Link.com,2013-02-14 02:20:00,
2013-02-13 20:35:00,44.8,44.3,29.93,NNE,22,0.0,-999.0,98,-99.99,,,0.00,Acu-Link.com,2013-02-14 02:35:00,
2013-02-13 20:51:00,44.8,44.3,29.92,NE,45,1.7,-999.0,98,-99.99,,,0.00,Acu-Link.com,2013-02-14 02:51:00,
2013-02-13 21:07:00,44.4,43.9,29.93,NE,45,1.1,-999.0,98,-99.99,,,0.00,Acu-Link.com,2013-02-14 03:07:00,
2013-02-13 21:28:00,44.1,43.6,29.93,NE,45,0.0,-999.0,98,-99.99,,,0.00,Acu-Link.com,2013-02-14 03:28:00,
2013-02-13 21:44:00,43.7,43.2,29.94,NNW,337,2.2,-999.0,98,-99.99,,,0.00,Acu-Link.com,2013-02-14 03:44:00,